Voltar ao catálogo

STARLINK DEPLOYMENT RAIL

AtivoSSO
NORAD 47436·DEBRIS·🇺🇸 United States
Este nome de satélite ainda não foi confirmado por fontes oficiais.

Lançado Jan 24, 2021 de Cape Canaveral Space Force Station

Loading…

Próximas Passagens (próximas 24 horas)

TLE

AtualizadoSource: Space-Track

Época: Sep 14, 2026, 14:13 UTC

1 47436U 21006Z   26257.59245138  .00004137  00000-0  13275-3 0  9998
2 47436  97.2151 297.5079 0008252 227.7124 132.3420 15.32833399313088

Acompanhe STARLINK DEPLOYMENT RAIL em tempo real com AllMySat

Download on the App Store